| time (UTC) | temp F | wind direction | speed MPH | gust MPH | rain 1hr in | rain 24hr in | rain mn in | humidity % | barometer mb |
| 20260505062252 | 57 | 261 | 4.0 | 7.0 | 0.00 | 0.00 | 0.00 | 45 | 1019.9 |
| 20260505061749 | 57 | 253 | 5.0 | 7.0 | 0.00 | 0.00 | 0.00 | 44 | 1019.8 |
| 20260505061247 | 57 | 276 | 4.0 | 6.0 | 0.00 | 0.00 | 0.00 | 44 | 1019.9 |
| 20260505060744 | 57 | 251 | 3.0 | 4.0 | 0.00 | 0.00 | 0.00 | 45 | 1019.4 |
| 20260505060241 | 57 | 264 | 2.0 | 3.0 | 0.00 | 0.00 | 0.00 | 44 | 1019.6 |
| 20260505055736 | 57 | 266 | 2.0 | 4.0 | 0.00 | 0.00 | 0.00 | 44 | 1019.4 |
| 20260505055233 | 57 | 255 | 3.0 | 6.0 | 0.00 | 0.00 | 0.00 | 44 | 1019.6 |
| 20260505054730 | 57 | 267 | 3.0 | 5.0 | 0.00 | 0.00 | 0.00 | 44 | 1019.3 |
| 20260505054228 | 57 | 291 | 3.0 | 7.0 | 0.00 | 0.00 | 0.00 | 44 | 1019.4 |
| 20260505053726 | 56 | 297 | 6.0 | 9.0 | 0.00 | 0.00 | 0.00 | 45 | 1019.9 |
| 20260505053222 | 56 | 289 | 7.0 | 9.0 | 0.00 | 0.00 | 0.00 | 45 | 1019.9 |
| 20260505052720 | 56 | 259 | 2.0 | 7.0 | 0.00 | 0.00 | 0.00 | 46 | 1020.0 |
| 20260505052216 | 56 | 276 | 4.0 | 7.0 | 0.00 | 0.00 | 0.00 | 45 | 1019.9 |
| 20260505051714 | 57 | 288 | 4.0 | 9.0 | 0.00 | 0.00 | 0.00 | 45 | 1019.9 |
| 20260505051212 | 57 | 287 | 8.0 | 10.0 | 0.00 | 0.00 | 0.00 | 44 | 1019.9 |
| 20260505050709 | 56 | 275 | 7.0 | 9.0 | 0.00 | 0.00 | 0.00 | 45 | 1019.8 |
| 20260505050207 | 56 | 264 | 7.0 | 11.0 | 0.00 | 0.00 | 0.00 | 45 | 1019.7 |
| 20260505041637 | 57 | 290 | 14.0 | 14.0 | 0.00 | 0.00 | 0.00 | 45 | 1019.3 |
| 20260505041134 | 57 | 303 | 16.0 | 16.0 | 0.00 | 0.00 | 0.00 | 45 | 1019.1 |
| 20260505040631 | 57 | 286 | 8.0 | 17.0 | 0.00 | 0.00 | 0.00 | 45 | 1019.8 |
| 20260505040128 | 57 | 281 | 10.0 | 15.0 | 0.00 | 0.00 | 0.00 | 45 | 1020.0 |
| 20260505035624 | 57 | 288 | 7.0 | 15.0 | 0.00 | 0.00 | 0.00 | 45 | 1019.9 |
| 20260505035121 | 57 | 265 | 7.0 | 16.0 | 0.00 | 0.00 | 0.00 | 44 | 1019.9 |
| 20260505034618 | 57 | 297 | 8.0 | 17.0 | 0.00 | 0.00 | 0.00 | 44 | 1019.9 |
| 20260505034114 | 58 | 293 | 15.0 | 20.0 | 0.00 | 0.00 | 0.00 | 43 | 1019.7 |
| 20260505033611 | 58 | 308 | 11.0 | 18.0 | 0.00 | 0.00 | 0.00 | 43 | 1019.7 |
| 20260505033110 | 58 | 272 | 18.0 | 20.0 | 0.00 | 0.00 | 0.00 | 43 | 1019.6 |
| 20260505032607 | 59 | 301 | 18.0 | 23.0 | 0.00 | 0.00 | 0.00 | 42 | 1019.3 |
| 20260505032103 | 59 | 280 | 9.0 | 12.0 | 0.00 | 0.00 | 0.00 | 42 | 1019.6 |
| 20260505031601 | 59 | 313 | 13.0 | 18.0 | 0.00 | 0.00 | 0.00 | 42 | 1019.0 |
| 20260505031057 | 60 | 288 | 11.0 | 16.0 | 0.00 | 0.00 | 0.00 | 40 | 1019.2 |
| 20260505030554 | 60 | 281 | 9.0 | 16.0 | 0.00 | 0.00 | 0.00 | 39 | 1019.1 |
| 20260505030050 | 60 | 293 | 9.0 | 14.0 | 0.00 | 0.00 | 0.00 | 38 | 1018.9 |
| 20260505025546 | 60 | 302 | 7.0 | 16.0 | 0.00 | 0.00 | 0.00 | 38 | 1018.6 |
| 20260505025045 | 61 | 297 | 11.0 | 17.0 | 0.00 | 0.00 | 0.00 | 37 | 1018.4 |
| 20260505024541 | 61 | 297 | 13.0 | 15.0 | 0.00 | 0.00 | 0.00 | 37 | 1018.6 |
| 20260505024038 | 61 | 271 | 9.0 | 19.0 | 0.00 | 0.00 | 0.00 | 36 | 1018.5 |
| 20260505023536 | 62 | 307 | 9.0 | 14.0 | 0.00 | 0.00 | 0.00 | 35 | 1018.5 |
| 20260505023033 | 62 | 284 | 8.0 | 13.0 | 0.00 | 0.00 | 0.00 | 34 | 1018.3 |
| 20260505022531 | 62 | 289 | 8.0 | 13.0 | 0.00 | 0.00 | 0.00 | 33 | 1018.2 |
| 20260505022028 | 63 | 297 | 6.0 | 14.0 | 0.00 | 0.00 | 0.00 | 32 | 1018.2 |
| 20260505021524 | 63 | 295 | 8.0 | 14.0 | 0.00 | 0.00 | 0.00 | 31 | 1018.0 |
| 20260505021020 | 63 | 288 | 9.0 | 17.0 | 0.00 | 0.00 | 0.00 | 31 | 1018.5 |
| 20260505020515 | 64 | 276 | 8.0 | 16.0 | 0.00 | 0.00 | 0.00 | 31 | 1018.2 |
| 20260505020013 | 64 | 279 | 7.0 | 15.0 | 0.00 | 0.00 | 0.00 | 30 | 1018.4 |
| 20260505015509 | 64 | 296 | 6.0 | 12.0 | 0.00 | 0.00 | 0.00 | 30 | 1018.3 |
| 20260505015006 | 65 | 283 | 8.0 | 13.0 | 0.00 | 0.00 | 0.00 | 29 | 1018.0 |
| 20260505014503 | 65 | 296 | 10.0 | 14.0 | 0.00 | 0.00 | 0.00 | 29 | 1018.2 |
| 20260505014001 | 65 | 271 | 8.0 | 17.0 | 0.00 | 0.00 | 0.00 | 29 | 1018.0 |
| 20260505013457 | 66 | 301 | 7.0 | 14.0 | 0.00 | 0.00 | 0.00 | 29 | 1017.8 |
| 20260505012954 | 66 | 269 | 13.0 | 16.0 | 0.00 | 0.00 | 0.00 | 28 | 1018.0 |
| 20260505012453 | 67 | 298 | 13.0 | 15.0 | 0.00 | 0.00 | 0.00 | 28 | 1017.9 |
| 20260505011949 | 68 | 283 | 5.0 | 22.0 | 0.00 | 0.00 | 0.00 | 28 | 1018.2 |
| 20260505011445 | 68 | 285 | 12.0 | 19.0 | 0.00 | 0.00 | 0.00 | 28 | 1018.2 |
| 20260505010942 | 68 | 311 | 11.0 | 17.0 | 0.00 | 0.00 | 0.00 | 28 | 1018.3 |
| 20260505010438 | 68 | 305 | 13.0 | 20.0 | 0.00 | 0.00 | 0.00 | 28 | 1018.0 |
| 20260505005934 | 68 | 314 | 18.0 | 21.0 | 0.00 | 0.00 | 0.00 | 27 | 1018.3 |
| 20260505005431 | 69 | 274 | 10.0 | 13.0 | 0.00 | 0.00 | 0.00 | 26 | 1018.3 |
| 20260505004929 | 70 | 212 | 9.0 | 12.0 | 0.00 | 0.00 | 0.00 | 25 | 1017.9 |
| 20260505004425 | 70 | 252 | 6.0 | 12.0 | 0.00 | 0.00 | 0.00 | 26 | 1018.2 |
| 20260505003922 | 70 | 229 | 9.0 | 12.0 | 0.00 | 0.00 | 0.00 | 26 | 1018.4 |
| 20260505003419 | 70 | 233 | 9.0 | 18.0 | 0.00 | 0.00 | 0.00 | 26 | 1018.3 |
| 20260505002915 | 71 | 209 | 5.0 | 16.0 | 0.00 | 0.00 | 0.00 | 26 | 1018.4 |
| 20260505002412 | 71 | 240 | 11.0 | 16.0 | 0.00 | 0.00 | 0.00 | 26 | 1018.3 |
| 20260505001910 | 70 | 247 | 8.0 | 20.0 | 0.00 | 0.00 | 0.00 | 26 | 1018.0 |
| 20260505001407 | 72 | 257 | 11.0 | 17.0 | 0.00 | 0.00 | 0.00 | 25 | 1018.0 |
| 20260505000904 | 71 | 242 | 10.0 | 22.0 | 0.00 | 0.00 | 0.00 | 24 | 1018.3 |
| 20260505000402 | 71 | 266 | 8.0 | 19.0 | 0.00 | 0.00 | 0.00 | 25 | 1018.4 |
| 20260504235859 | 71 | 228 | 9.0 | 17.0 | 0.00 | 0.00 | 0.00 | 25 | 1018.5 |
| 20260504235356 | 71 | 243 | 10.0 | 15.0 | 0.00 | 0.00 | 0.00 | 24 | 1018.3 |
| 20260504234852 | 71 | 234 | 13.0 | 18.0 | 0.00 | 0.00 | 0.00 | 24 | 1018.3 |
| 20260504234350 | 71 | 271 | 9.0 | 24.0 | 0.00 | 0.00 | 0.00 | 24 | 1018.2 |
| 20260504233846 | 71 | 205 | 6.0 | 11.0 | 0.00 | 0.00 | 0.00 | 23 | 1018.2 |
| 20260504233342 | 71 | 250 | 12.0 | 20.0 | 0.00 | 0.00 | 0.00 | 23 | 1018.4 |
| 20260504232839 | 71 | 235 | 5.0 | 17.0 | 0.00 | 0.00 | 0.00 | 23 | 1018.3 |
| 20260504232336 | 71 | 238 | 16.0 | 19.0 | 0.00 | 0.00 | 0.00 | 23 | 1018.4 |
| 20260504231833 | 71 | 275 | 11.0 | 14.0 | 0.00 | 0.00 | 0.00 | 22 | 1018.4 |
| 20260504231329 | 71 | 259 | 15.0 | 24.0 | 0.00 | 0.00 | 0.00 | 22 | 1018.4 |
| 20260504230825 | 71 | 240 | 10.0 | 15.0 | 0.00 | 0.00 | 0.00 | 21 | 1018.2 |
| 20260504230323 | 71 | 251 | 16.0 | 18.0 | 0.00 | 0.00 | 0.00 | 21 | 1018.0 |
| 20260504225822 | 71 | 265 | 20.0 | 20.0 | 0.00 | 0.00 | 0.00 | 21 | 1018.4 |
| 20260504225318 | 72 | 233 | 16.0 | 17.0 | 0.00 | 0.00 | 0.00 | 20 | 1018.2 |
| 20260504224815 | 72 | 223 | 14.0 | 18.0 | 0.00 | 0.00 | 0.00 | 20 | 1018.3 |
| 20260504224312 | 71 | 234 | 10.0 | 21.0 | 0.00 | 0.00 | 0.00 | 19 | 1018.4 |
| 20260504223809 | 71 | 248 | 15.0 | 20.0 | 0.00 | 0.00 | 0.00 | 19 | 1018.3 |
| 20260504223304 | 72 | 251 | 11.0 | 20.0 | 0.00 | 0.00 | 0.00 | 18 | 1018.3 |
| 20260504222801 | 72 | 232 | 18.0 | 24.0 | 0.00 | 0.00 | 0.00 | 19 | 1018.6 |
| 20260504222258 | 72 | 246 | 12.0 | 17.0 | 0.00 | 0.00 | 0.00 | 20 | 1018.4 |
| 20260504221756 | 73 | 235 | 10.0 | 15.0 | 0.00 | 0.00 | 0.00 | 21 | 1018.5 |
| 20260504221253 | 72 | 265 | 7.0 | 23.0 | 0.00 | 0.00 | 0.00 | 21 | 1018.6 |
| 20260504220749 | 73 | 211 | 7.0 | 23.0 | 0.00 | 0.00 | 0.00 | 21 | 1018.6 |
| 20260504220246 | 73 | 249 | 13.0 | 19.0 | 0.00 | 0.00 | 0.00 | 20 | 1018.4 |
| 20260504215744 | 73 | 228 | 15.0 | 22.0 | 0.00 | 0.00 | 0.00 | 21 | 1018.6 |
| 20260504215240 | 73 | 233 | 8.0 | 14.0 | 0.00 | 0.00 | 0.00 | 21 | 1018.5 |
| 20260504214736 | 73 | 230 | 6.0 | 14.0 | 0.00 | 0.00 | 0.00 | 21 | 1018.6 |
| 20260504214233 | 73 | 259 | 11.0 | 20.0 | 0.00 | 0.00 | 0.00 | 20 | 1018.9 |
| 20260504213730 | 73 | 229 | 14.0 | 24.0 | 0.00 | 0.00 | 0.00 | 20 | 1018.6 |
| 20260504213226 | 73 | 217 | 10.0 | 21.0 | 0.00 | 0.00 | 0.00 | 19 | 1018.9 |
| 20260504212723 | 74 | 233 | 11.0 | 20.0 | 0.00 | 0.00 | 0.00 | 18 | 1018.7 |
| 20260504212220 | 75 | 264 | 12.0 | 17.0 | 0.00 | 0.00 | 0.00 | 18 | 1018.7 |
| 20260504211717 | 73 | 227 | 10.0 | 21.0 | 0.00 | 0.00 | 0.00 | 19 | 1018.5 |
| 20260504211213 | 74 | 208 | 9.0 | 16.0 | 0.00 | 0.00 | 0.00 | 20 | 1018.9 |
| 20260504210711 | 74 | 269 | 5.0 | 19.0 | 0.00 | 0.00 | 0.00 | 19 | 1018.6 |
| 20260504210208 | 75 | 246 | 11.0 | 16.0 | 0.00 | 0.00 | 0.00 | 20 | 1019.0 |
| 20260504205705 | 74 | 204 | 13.0 | 17.0 | 0.00 | 0.00 | 0.00 | 20 | 1019.0 |
| 20260504205202 | 74 | 199 | 10.0 | 18.0 | 0.00 | 0.00 | 0.00 | 21 | 1019.0 |
| 20260504204700 | 74 | 261 | 3.0 | 14.0 | 0.00 | 0.00 | 0.00 | 21 | 1019.0 |
| 20260504204153 | 75 | 153 | 9.0 | 11.0 | 0.00 | 0.00 | 0.00 | 20 | 1018.9 |
| 20260504203651 | 74 | 245 | 13.0 | 24.0 | 0.00 | 0.00 | 0.00 | 20 | 1018.9 |
| 20260504203148 | 74 | 184 | 7.0 | 19.0 | 0.00 | 0.00 | 0.00 | 21 | 1018.9 |
| 20260504202643 | 73 | 228 | 9.0 | 17.0 | 0.00 | 0.00 | 0.00 | 20 | 1019.0 |
| 20260504202140 | 74 | 258 | 4.0 | 6.0 | 0.00 | 0.00 | 0.00 | 20 | 1019.1 |
| 20260504201637 | 73 | 157 | 10.0 | 11.0 | 0.00 | 0.00 | 0.00 | 20 | 1019.3 |
| 20260504201135 | 73 | 225 | 6.0 | 17.0 | 0.00 | 0.00 | 0.00 | 21 | 1019.2 |
| 20260504200632 | 76 | 226 | 6.0 | 15.0 | 0.00 | 0.00 | 0.00 | 21 | 1019.2 |
| 20260504200128 | 76 | 201 | 7.0 | 10.0 | 0.00 | 0.00 | 0.00 | 23 | 1019.1 |
| 20260504195624 | 75 | 121 | 9.0 | 12.0 | 0.00 | 0.00 | 0.00 | 22 | 1019.1 |
| 20260504195121 | 73 | 178 | 2.0 | 13.0 | 0.00 | 0.00 | 0.00 | 23 | 1019.4 |
| 20260504194618 | 73 | 235 | 5.0 | 18.0 | 0.00 | 0.00 | 0.00 | 23 | 1019.3 |
| 20260504194114 | 73 | 155 | 5.0 | 13.0 | 0.00 | 0.00 | 0.00 | 22 | 1019.7 |
| 20260504193610 | 74 | 238 | 6.0 | 18.0 | 0.00 | 0.00 | 0.00 | 23 | 1019.3 |
| 20260504193109 | 74 | 191 | 3.0 | 8.0 | 0.00 | 0.00 | 0.00 | 24 | 1019.2 |
| 20260504192606 | 73 | 164 | 9.0 | 12.0 | 0.00 | 0.00 | 0.00 | 23 | 1019.4 |
| 20260504192104 | 73 | 140 | 8.0 | 12.0 | 0.00 | 0.00 | 0.00 | 24 | 1019.4 |
| 20260504191602 | 73 | 122 | 3.0 | 15.0 | 0.00 | 0.00 | 0.00 | 25 | 1019.4 |
| 20260504191058 | 72 | 182 | 12.0 | 15.0 | 0.00 | 0.00 | 0.00 | 25 | 1019.9 |
| 20260504190554 | 73 | 232 | 9.0 | 10.0 | 0.00 | 0.00 | 0.00 | 27 | 1019.9 |
| 20260504190050 | 71 | 170 | 11.0 | 13.0 | 0.00 | 0.00 | 0.00 | 29 | 1020.1 |
| 20260504185548 | 72 | 163 | 6.0 | 13.0 | 0.00 | 0.00 | 0.00 | 28 | 1020.1 |
| 20260504185044 | 73 | 327 | 2.0 | 10.0 | 0.00 | 0.00 | 0.00 | 27 | 1020.1 |
| 20260504184539 | 70 | 204 | 7.0 | 10.0 | 0.00 | 0.00 | 0.00 | 27 | 1020.3 |
| 20260504184035 | 71 | 205 | 12.0 | 15.0 | 0.00 | 0.00 | 0.00 | 27 | 1020.3 |
| 20260504183532 | 71 | 238 | 11.0 | 11.0 | 0.00 | 0.00 | 0.00 | 28 | 1020.1 |
| 20260504183031 | 70 | 229 | 7.0 | 12.0 | 0.00 | 0.00 | 0.00 | 30 | 1020.4 |
| 20260504182527 | 71 | 162 | 4.0 | 9.0 | 0.00 | 0.00 | 0.00 | 28 | 1020.4 |
| 20260504182025 | 70 | 166 | 6.0 | 14.0 | 0.00 | 0.00 | 0.00 | 27 | 1020.4 |
| 20260504181521 | 71 | 175 | 4.0 | 10.0 | 0.00 | 0.00 | 0.00 | 28 | 1020.3 |
| 20260504181020 | 70 | 198 | 2.0 | 9.0 | 0.00 | 0.00 | 0.00 | 31 | 1020.5 |
| 20260504180518 | 69 | 153 | 0.0 | 7.0 | 0.00 | 0.00 | 0.00 | 32 | 1020.5 |
| 20260504180017 | 69 | 139 | 6.0 | 9.0 | 0.00 | 0.00 | 0.00 | 31 | 1020.5 |
| 20260504175514 | 70 | 191 | 5.0 | 15.0 | 0.00 | 0.00 | 0.00 | 32 | 1020.7 |
| 20260504175011 | 70 | 145 | 8.0 | 11.0 | 0.00 | 0.00 | 0.00 | 32 | 1020.5 |
| 20260504174509 | 68 | 108 | 2.0 | 12.0 | 0.00 | 0.00 | 0.00 | 33 | 1020.7 |
| 20260504174005 | 68 | 157 | 6.0 | 12.0 | 0.00 | 0.00 | 0.00 | 33 | 1020.7 |
| 20260504173502 | 68 | 175 | 15.0 | 17.0 | 0.00 | 0.00 | 0.00 | 33 | 1020.8 |
| 20260504172959 | 67 | 152 | 6.0 | 13.0 | 0.00 | 0.00 | 0.00 | 35 | 1020.4 |
| 20260504172455 | 66 | 183 | 5.0 | 11.0 | 0.00 | 0.00 | 0.00 | 36 | 1020.5 |
| 20260504171952 | 67 | 156 | 4.0 | 15.0 | 0.00 | 0.00 | 0.00 | 35 | 1020.3 |
| 20260504171449 | 67 | 191 | 6.0 | 12.0 | 0.00 | 0.00 | 0.00 | 35 | 1020.6 |
| 20260504170946 | 68 | 233 | 5.0 | 8.0 | 0.00 | 0.00 | 0.00 | 35 | 1020.5 |
| 20260504170442 | 68 | 144 | 7.0 | 13.0 | 0.00 | 0.00 | 0.00 | 35 | 1020.5 |
| 20260504160402 | 65 | 155 | 5.0 | 12.0 | 0.00 | 0.00 | 0.00 | 37 | 1020.7 |
| 20260504150826 | 64 | 148 | 6.0 | 10.0 | 0.00 | 0.00 | 0.00 | 38 | 1020.5 |
| 20260504150322 | 64 | 157 | 4.0 | 9.0 | 0.00 | 0.00 | 0.00 | 38 | 1020.7 |
| 20260504141252 | 61 | 123 | 6.0 | 6.0 | 0.00 | 0.00 | 0.00 | 45 | 1020.5 |
| 20260504140749 | 60 | 259 | 3.0 | 7.0 | 0.00 | 0.00 | 0.00 | 46 | 1020.3 |
| 20260504140245 | 60 | 157 | 5.0 | 10.0 | 0.00 | 0.00 | 0.00 | 46 | 1020.6 |
| 20260504130713 | 59 | 186 | 3.0 | 5.0 | 0.00 | 0.00 | 0.00 | 46 | 1019.7 |
| 20260504130209 | 58 | 147 | 1.0 | 2.0 | 0.00 | 0.00 | 0.00 | 47 | 1019.4 |
| 20260504120133 | 55 | 239 | 1.0 | 3.0 | 0.00 | 0.00 | 0.00 | 54 | 1019.2 |
| 20260504110601 | 60 | 161 | 6.0 | 9.0 | 0.00 | 0.00 | 0.00 | 45 | 1018.9 |
| 20260504100522 | 61 | 191 | 2.0 | 8.0 | 0.00 | 0.00 | 0.00 | 42 | 1018.9 |
| 20260504081916 | 61 | 206 | 4.0 | 6.0 | 0.00 | 0.00 | 0.00 | 41 | 1019.6 |
| 20260504081413 | 61 | 246 | 3.0 | 5.0 | 0.00 | 0.00 | 0.00 | 41 | 1019.4 |
| 20260504080909 | 62 | 226 | 3.0 | 5.0 | 0.00 | 0.00 | 0.00 | 40 | 1019.4 |
| 20260504080406 | 62 | 169 | 5.0 | 6.0 | 0.00 | 0.00 | 0.00 | 40 | 1019.3 |
| 20260504070333 | 63 | 136 | 6.0 | 14.0 | 0.00 | 0.00 | 0.00 | 38 | 1019.8 |